Flag Weather past 2 weeks in Dallas, Texas, U.S.A.

Now
76 °F

Passing clouds.


Feels Like: 77 °F
Forecast: 51 / 75 °F
Wind: 15 mph from West

Location: Dallas Love Field

Current Time: Nov 23, 2014 at 4:18:18 PM

Latest Report: Nov 23, 2014 at 3:53 PM


Visibility: 10 mi

Pressure: 29.39 "Hg

Humidity: 24%

Dew point: 36 °F

Location of DallasLocation

Historic Weather in Dallas — Graph

°F

Dallas temperature yesterday

Maximum temperature yesterday: 63 °F (at 2:53 PM)
Minimum temperature yesterday: 57 °F (at 10:53 PM)
Average temperature yesterday: 60 °F

Past Weeks' High & Low Weather Summary

 TemperatureHumidityPressure
High79 °F (Nov 10, 2:53 PM)100% (Nov 23, 5:56 AM)30.63 "Hg (Nov 23, 5:56 AM)
Low26 °F (Nov 17, 3:53 AM)20% (Nov 18, 2:53 PM)29.37 "Hg (Nov 23, 2:53 PM)
Average48 °F61%30.14 "Hg
* Reported Nov 8 2:53 PM — Nov 23 2:53 PM, Dallas, Weather by CustomWeather, © 2014

Note: Actual official high and low records may vary slightly from our data, if they occured in-between our weather recording intervals... More about our weather records

Advertising

Dallas weather history for previous 24 hours

 ConditionsComfort  
Time TempWeatherWind HumidityBarometerVisibility
2:53 PM
Nov 23
77 °FPassing clouds.17 mph28%29.37 "Hg10 mi
1:53 PM75 °FPassing clouds.15 mph32%29.37 "Hg10 mi
12:53 PM73 °FSunny.10 mph40%29.37 "Hg10 mi
11:53 AM69 °FSunny.14 mph53%29.42 "Hg10 mi
10:53 AM65 °FPassing clouds.12 mph66%29.47 "Hg10 mi
9:53 AM64 °FPassing clouds.10 mph78%29.51 "Hg10 mi
8:53 AM59 °FPassing clouds.8 mph90%29.55 "Hg10 mi
7:53 AM57 °FPassing clouds.8 mph93%29.57 "Hg9 mi
7:00 AM55 °FFog.3 mph100%29.59 "Hg4 mi
5:56 AM56 °FFog.5 mph100%29.59 "Hg1 mi
4:53 AM57 °FFog.5 mph96%29.60 "Hg1 mi
3:53 AM58 °FFog.3 mph97%29.62 "Hg1 mi
2:53 AM56 °FFog.3 mph97%29.61 "Hg2 mi
1:53 AM55 °FFog.6 mph96%29.62 "Hg4 mi
12:53 AM56 °FPassing clouds.5 mph97%29.64 "Hg8 mi
11:53 PM
Nov 22
57 °FPassing clouds.6 mph93%29.67 "Hg10 mi
10:53 PM57 °FOvercast.7 mph96%29.73 "Hg10 mi
9:53 PM59 °FMostly cloudy.8 mph90%29.74 "Hg10 mi
8:53 PM58 °FMostly cloudy.7 mph93%29.78 "Hg10 mi
7:53 PM60 °FLight rain. Mostly cloudy.5 mph93%29.80 "Hg8 mi
6:57 PM61 °FRain. Fog.10 mph93%29.88 "Hg5 mi
5:53 PM62 °FRain. Fog.20 mph90%29.83 "Hg5 mi
4:53 PM62 °FRain. Fog.20 mph90%29.83 "Hg6 mi
Weather by CustomWeather, © 2014

See weather overviewHow to use our weather pages